Regional Weather Roundup
Issued by NWS

Home | Current Version | Previous Version | Text Only | Print | Product List | Glossary On
Versions: 1 2 3 4 5 6 7 8 9 10 11 12 13 14 15 16 17 18 19 20 21 22 23 24 25 26 27
000
ASUS45 KBOU 262207
RWRCO

WEATHER ROUNDUP FOR COLORADO
NATIONAL WEATHER SERVICE DENVER/BOULDER CO
400 PM MDT TUE SEP 26 2017

NOTE: "FAIR" INDICATES FEW OR NO CLOUDS BELOW 12000 FEET WITH NO
SIGNIFICANT WEATHER AND/OR OBSTRUCTIONS TO VISIBILITY.

COZ001>005-013-030-031-262300-
...NORTHWEST COLORADO...

CITY           SKY/WX    TMP DP  RH WIND       PRES   REMARKS
CRAIG          FAIR      63  17  17 VRB3      30.14F
HAYDEN         FAIR      58  22  24 VRB5      30.17F
MEEKER         FAIR      64  21  19 SW10      30.13F
RABBIT EARS PA FAIR      45  23  42 W8        30.30S
STEAMBOAT SPGS FAIR      60  25  25 SW8       30.14F
WALDEN         FAIR      54  21  28 NW10      30.21F
$$

COZ006>008-011-262300-
...WEST CENTRAL VALLEYS...

CITY           SKY/WX    TMP DP  RH WIND       PRES   REMARKS
GRAND JUNCTION FAIR      68  29  23 W12       30.04F
MONTROSE       FAIR      66  24  20 NW9       30.08S
EAGLE          FAIR      68  20  16 W14G21    30.09F
RIFLE          FAIR      67  18  15 W16       30.06F
DELTA          FAIR      69  28  21 SW13      30.04
NUCLA          FAIR      68  19  15 NW10      30.10
$$

COZ017>023-064>068-262300-
...SOUTHWEST COLORADO...

CITY           SKY/WX    TMP DP  RH WIND       PRES   REMARKS
DURANGO        PTSUNNY   66  37  34 CALM      30.07F
CORTEZ         PTSUNNY   71  33  24 S13G18    30.03F
PAGOSA SPRINGS PTSUNNY   64  30  28 E5        30.14F
TELLURIDE      CLOUDY    52  22  30 W17G25    30.22
WOLF CREEK PAS CLOUDY    39  28  65 SW10G17   30.40S
$$

COZ009-010-012-014-032>034-037-058>063-262300-
...CENTRAL COLORADO...

CITY           SKY/WX    TMP DP  RH WIND       PRES   REMARKS
ASPEN          FAIR      63  18  17 NW9G18    30.11S
BUENA VISTA    FAIR      60  28  29 SE10      30.15S
COPPER MTN     CLOUDY    45  10  24 NW14G23   30.34R
BERTHOUD PASS  HAZE      32  23  69 SE18G26   30.38S VSB<1/4 WCI  20
COTTONWOOD PAS CLOUDY    55  30  38 E9        30.24F
GUNNISON       FAIR      64  21  19 VRB7      30.10S
KREMMLING      FAIR      73   5   7 W10       30.12F
LEADVILLE      FAIR      53  11  18 MISG      30.21S
SALIDA         PTSUNNY   63  35  35 SE12G18   30.20F
SUNLIGHT       FAIR      45  19  36 W10G21    30.32S
WILKERSON PASS CLOUDY    41  32  70 SE8       30.37S
$$

COZ069>075-262300-
...SAN LUIS VALLEY/SANGRE DE CRISTO MOUNTAINS...

CITY           SKY/WX    TMP DP  RH WIND       PRES   REMARKS
ALAMOSA        LGT RAIN  63  32  31 SE8       30.11F
DEL NORTE      FAIR      61  32  33 CALM      30.15F
LA VETA PASS   FOG       43  39  87 N13       30.39F VSB<1/4
SAGUACHE       FAIR      63  30  29 S13G18    30.14F
$$

COZ035-036-038>040-262300-
...NORTHERN COLORADO FRONT RANGE...

CITY           SKY/WX    TMP DP  RH WIND       PRES   REMARKS
DENVER INTL AP PTSUNNY   61  39  44 NE5       30.16S
DMNS CITY PARK   N/A     59  40  49 N13       30.17S
AURORA         PTSUNNY   60  41  49 E10       30.17R
FRONT RANGE AP PTSUNNY   63  43  48 E7        30.18S
ERIE MUNI ARPT CLOUDY    60  40  47 NE6       30.22R
BOULDER MUN AP CLOUDY    59  36  41 NE5       30.17R
CENTENNIAL     PTSUNNY   59  40  49 NE9       30.16S
BROOMFIELD     PTSUNNY   57  39  51 N5        30.18S
FORT COLLINS   FAIR      61  41  47 E5        30.18S
LONGMONT       CLOUDY    62  39  43 E5        30.18F
$$

COZ041-046-047-076>085-087-088-262300-
...PIKES PEAK/PALMER DIVIDE AND SOUTHERN FOOTHILLS...

CITY           SKY/WX    TMP DP  RH WIND       PRES   REMARKS
COLO. SPRINGS  PTSUNNY   56  40  55 S7        30.19F
A. F. ACADEMY  CLOUDY    53  41  63 W3        30.19F
SCHRIEVER AFB  PTSUNNY   56  40  55 SE8       30.20S
CHEYENNE MTN   CLOUDY    49  45  88 CALM      30.15F
ELLICOTT       PTSUNNY  N/A N/A N/A VRB3      30.18S
FALCON         FAIR      55  38  51 S5        30.22
FORT CARSON    CLOUDY    58  42  55 SE7       30.16F
LIMON            N/A    N/A N/A N/A MISG      30.16F
MONUMENT HILL  FAIR      54  37  54 SE6       30.22F
CANON CITY     CLOUDY    61  45  55 SE10      30.15F
WALSENBURG     CLOUDY    57  48  72 E8        30.17S
TRINIDAD       CLOUDY    58  49  72 NE10      30.16S
$$

COZ042>045-048>051-090-091-262300-
...NORTHEAST COLORADO...

CITY           SKY/WX    TMP DP  RH WIND       PRES   REMARKS
GREELEY ARPT   CLOUDY    66  40  38 S5        30.17S
AKRON          CLOUDY    62  38  40 CALM      30.16S
BURLINGTON     FAIR      63  45  51 E6        30.16S
WRAY           FAIR      68  37  32 CALM      30.15S
YUMA           FAIR      63  39  42 CALM      30.15F
STERLING       PTSUNNY   64  36  34 CALM      30.14S
HOLYOKE        FAIR      72  39  30 CALM      30.15S
FORT MORGAN    FAIR      64  34  33 E5        30.17
$$

COZ086-089-092>099-262300-
...SOUTHEAST COLORADO...

CITY           SKY/WX    TMP DP  RH WIND       PRES   REMARKS
PUEBLO         CLOUDY    61  44  53 SE6       30.14S
LA JUNTA       FAIR      64  46  52 E6        30.13F
LAMAR          FAIR      64  46  52 NE7       30.12F
SPRINGFIELD      N/A     59  49  69 E7        30.14F
$$




USA.gov is the U.S. government's official web portal to all federal, state and local government web resources and services.